Radiation Dose at Monitoring Post of Fukushima Daini Nuclear Power Station
Date,Time,MP-1(microSv/h),MP-2(microSv/h),MP-3(microSv/h),MP-4(microSv/h),MP-5(microSv/h),MP-6(microSv/h),MP-7(microSv/h),Wind Direction,Wind Velocity(m/s),Rain
2018/08/05,00:00,0.331,0.209,0.340,0.325,0.292,0.166,0.101,south-southwest,0.6,No
2018/08/05,00:10,0.333,0.208,0.336,0.327,0.293,0.165,0.100,south,0.6,No
2018/08/05,00:20,0.334,0.207,0.340,0.327,0.296,0.164,0.101,-,CALM,No
2018/08/05,00:30,0.331,0.208,0.339,0.325,0.294,0.165,0.101,-,CALM,No
2018/08/05,00:40,0.331,0.210,0.337,0.326,0.292,0.165,0.101,-,CALM,No
2018/08/05,00:50,0.336,0.207,0.339,0.328,0.296,0.165,0.101,-,CALM,No
2018/08/05,01:00,0.333,0.208,0.340,0.325,0.295,0.164,0.100,-,CALM,No
2018/08/05,01:10,0.331,0.210,0.339,0.326,0.292,0.165,0.102,-,CALM,No
2018/08/05,01:20,0.333,0.207,0.338,0.328,0.293,0.165,0.102,southwest,0.6,No
2018/08/05,01:30,0.334,0.207,0.340,0.324,0.295,0.165,0.101,-,CALM,No
2018/08/05,01:40,0.330,0.210,0.338,0.324,0.293,0.166,0.101,south,0.9,No
2018/08/05,01:50,0.333,0.208,0.340,0.328,0.293,0.164,0.101,south,0.6,No
2018/08/05,02:00,0.333,0.208,0.341,0.325,0.296,0.164,0.101,-,CALM,No
2018/08/05,02:10,0.331,0.209,0.339,0.324,0.294,0.165,0.101,south,0.9,No
2018/08/05,02:20,0.334,0.208,0.340,0.329,0.292,0.165,0.101,southeast,0.8,No
2018/08/05,02:30,0.334,0.208,0.341,0.325,0.296,0.165,0.101,southeast,0.6,No
2018/08/05,02:40,0.331,0.207,0.339,0.324,0.295,0.165,0.101,-,CALM,No
2018/08/05,02:50,0.335,0.207,0.341,0.329,0.292,0.165,0.103,south-southwest,0.8,No
2018/08/05,03:00,0.334,0.208,0.342,0.326,0.295,0.165,0.101,-,CALM,No
2018/08/05,03:10,0.330,0.208,0.338,0.324,0.296,0.165,0.102,-,CALM,No
2018/08/05,03:20,0.333,0.207,0.342,0.327,0.290,0.164,0.102,-,CALM,No
2018/08/05,03:30,0.333,0.208,0.339,0.326,0.295,0.166,0.101,-,CALM,No
2018/08/05,03:40,0.332,0.207,0.338,0.324,0.294,0.165,0.102,-,CALM,No
2018/08/05,03:50,0.335,0.209,0.342,0.328,0.292,0.164,0.103,west-southwest,0.9,No
2018/08/05,04:00,0.333,0.208,0.340,0.323,0.294,0.164,0.101,southwest,0.9,No
2018/08/05,04:10,0.330,0.206,0.338,0.326,0.295,0.166,0.101,south-southwest,0.9,No
2018/08/05,04:20,0.334,0.208,0.342,0.327,0.293,0.164,0.102,southwest,1.7,No
2018/08/05,04:30,0.333,0.208,0.338,0.324,0.295,0.165,0.102,south-southwest,2.4,No
2018/08/05,04:40,0.330,0.208,0.340,0.326,0.295,0.165,0.101,south-southwest,3.2,No
2018/08/05,04:50,0.334,0.208,0.340,0.328,0.292,0.165,0.102,south-southwest,3.1,No
2018/08/05,05:00,0.333,0.206,0.337,0.324,0.295,0.166,0.101,south-southwest,3.8,No
2018/08/05,05:10,0.330,0.208,0.342,0.326,0.295,0.165,0.101,south-southwest,5.5,No
2018/08/05,05:20,0.333,0.207,0.341,0.327,0.292,0.164,0.102,south-southwest,5.1,No
2018/08/05,05:30,0.332,0.206,0.336,0.324,0.292,0.165,0.101,southwest,4.5,No
2018/08/05,05:40,0.330,0.208,0.340,0.326,0.296,0.164,0.100,southwest,6.0,No
2018/08/05,05:50,0.334,0.208,0.339,0.327,0.292,0.163,0.102,south-southwest,6.4,No
2018/08/05,06:00,0.333,0.207,0.336,0.325,0.290,0.164,0.101,south-southwest,5.4,No
2018/08/05,06:10,0.331,0.206,0.339,0.323,0.290,0.164,0.101,south-southwest,5.4,No
2018/08/05,06:20,0.330,0.208,0.341,0.328,0.291,0.163,0.100,south-southwest,4.4,No
2018/08/05,06:30,0.332,0.207,0.338,0.326,0.294,0.163,0.100,south-southwest,6.5,No
2018/08/05,06:40,0.332,0.206,0.335,0.324,0.294,0.165,0.101,south-southwest,5.8,No
2018/08/05,06:50,0.329,0.206,0.338,0.322,0.291,0.164,0.100,south-southwest,5.2,No
2018/08/05,07:00,0.328,0.205,0.342,0.323,0.292,0.163,0.101,south-southwest,4.4,No
2018/08/05,07:10,0.328,0.206,0.340,0.322,0.293,0.164,0.101,south-southwest,4.3,No
2018/08/05,07:20,0.334,0.206,0.338,0.323,0.291,0.163,0.100,south-southwest,3.6,No
2018/08/05,07:30,0.333,0.206,0.337,0.324,0.291,0.164,0.100,south-southwest,3.6,No
2018/08/05,07:40,0.332,0.206,0.338,0.324,0.291,0.164,0.101,south,4.0,No
2018/08/05,07:50,0.331,0.207,0.335,0.323,0.292,0.166,0.101,south,4.7,No
2018/08/05,08:00,0.330,0.207,0.337,0.323,0.292,0.164,0.101,south,5.2,No
2018/08/05,08:10,0.330,0.207,0.336,0.324,0.294,0.164,0.101,south,5.4,No
2018/08/05,08:20,0.330,0.207,0.336,0.324,0.292,0.165,0.101,south,6.5,No
2018/08/05,08:30,0.331,0.208,0.337,0.326,0.293,0.164,0.100,south,6.2,No
2018/08/05,08:40,0.331,0.208,0.336,0.325,0.292,0.164,0.100,south,6.1,No
2018/08/05,08:50,0.331,0.208,0.337,0.325,0.292,0.164,0.101,south,6.1,No
2018/08/05,09:00,0.331,0.207,0.335,0.326,0.293,0.164,0.100,south,7.2,No
2018/08/05,09:10,0.329,0.207,0.337,0.325,0.293,0.164,0.100,south,7.4,No
2018/08/05,09:20,0.332,0.208,0.338,0.326,0.295,0.165,0.101,south,8.6,No
2018/08/05,09:30,0.331,0.208,0.338,0.327,0.293,0.164,0.101,south,8.8,No
2018/08/05,09:40,0.333,0.207,0.336,0.327,0.293,0.161,0.100,south,8.3,No
2018/08/05,09:50,0.331,0.206,0.337,0.325,0.293,0.163,0.100,south,8.5,No
2018/08/05,10:00,0.333,0.206,0.336,0.327,0.292,0.162,0.101,south,8.8,No
2018/08/05,10:10,0.332,0.209,0.338,0.328,0.293,0.162,0.102,south,7.3,No
2018/08/05,10:20,0.332,0.209,0.338,0.328,0.293,0.163,0.102,south,6.5,No
2018/08/05,10:30,0.333,0.208,0.339,0.326,0.292,0.163,0.100,south-southwest,5.9,No
2018/08/05,10:40,0.333,0.208,0.338,0.326,0.290,0.162,0.100,south-southwest,5.5,No
2018/08/05,10:50,0.332,0.207,0.339,0.325,0.292,0.162,0.100,south,6.8,No
2018/08/05,11:00,0.332,0.206,0.340,0.325,0.292,0.162,0.101,south,6.7,No
2018/08/05,11:10,0.332,0.207,0.339,0.323,0.290,0.162,0.100,south,7.6,No
2018/08/05,11:20,0.331,0.207,0.340,0.324,0.291,0.163,0.099,south,7.8,No
2018/08/05,11:30,0.332,0.207,0.339,0.323,0.290,0.162,0.100,south,7.4,No
2018/08/05,11:40,0.332,0.207,0.338,0.323,0.292,0.163,0.099,south,7.9,No
2018/08/05,11:50,0.332,0.208,0.339,0.324,0.292,0.163,0.100,south,7.5,No
2018/08/05,12:00,0.333,0.208,0.339,0.327,0.291,0.163,0.100,south-southwest,8.2,No
2018/08/05,12:10,0.332,0.207,0.338,0.326,0.291,0.163,0.100,south,8.1,No
2018/08/05,12:20,0.332,0.208,0.338,0.325,0.292,0.162,0.100,south-southwest,6.0,No
2018/08/05,12:30,0.331,0.207,0.338,0.325,0.290,0.163,0.099,south-southwest,5.4,No
2018/08/05,12:40,0.333,0.207,0.340,0.328,0.291,0.162,0.101,south,6.7,No
2018/08/05,12:50,0.331,0.207,0.340,0.327,0.292,0.163,0.100,south,7.2,No
2018/08/05,13:00,0.333,0.207,0.341,0.327,0.292,0.163,0.100,south,8.5,No
2018/08/05,13:10,0.334,0.208,0.340,0.327,0.292,0.162,0.100,south,7.8,No
2018/08/05,13:20,0.333,0.207,0.339,0.327,0.293,0.163,0.099,south,6.9,No
2018/08/05,13:30,0.333,0.207,0.339,0.328,0.292,0.163,0.100,south,8.2,No
2018/08/05,13:40,0.333,0.207,0.340,0.328,0.292,0.163,0.100,south,9.3,No
2018/08/05,13:50,0.333,0.209,0.340,0.328,0.292,0.162,0.101,south,7.6,No
2018/08/05,14:00,0.332,0.208,0.340,0.327,0.291,0.163,0.100,south,8.2,No
2018/08/05,14:10,0.333,0.207,0.340,0.326,0.291,0.164,0.099,south,9.8,No
2018/08/05,14:20,0.332,0.208,0.339,0.324,0.291,0.163,0.099,south,9.6,No
2018/08/05,14:30,0.333,0.208,0.339,0.325,0.291,0.162,0.101,south,6.7,No
2018/08/05,14:40,0.333,0.207,0.339,0.325,0.290,0.162,0.099,south,6.1,No
2018/08/05,14:50,0.334,0.207,0.339,0.324,0.292,0.164,0.099,south,5.5,No
2018/08/05,15:00,0.334,0.207,0.340,0.325,0.291,0.164,0.100,south,6.6,No
2018/08/05,15:10,0.335,0.206,0.338,0.325,0.292,0.163,0.101,south,8.6,No
2018/08/05,15:20,0.333,0.207,0.339,0.324,0.291,0.163,0.099,south,10.0,No
2018/08/05,15:30,0.332,0.207,0.337,0.322,0.291,0.163,0.099,south,9.0,No
2018/08/05,15:40,0.331,0.206,0.337,0.324,0.291,0.163,0.100,south,7.5,No
2018/08/05,15:50,0.331,0.205,0.337,0.324,0.292,0.163,0.100,south-southwest,5.1,No
2018/08/05,16:00,0.330,0.206,0.336,0.324,0.291,0.162,0.100,south,7.0,No
2018/08/05,16:10,0.330,0.207,0.337,0.325,0.291,0.162,0.099,south-southwest,4.8,No
2018/08/05,16:20,0.330,0.206,0.337,0.324,0.291,0.162,0.100,south-southwest,3.3,No
2018/08/05,16:30,0.330,0.206,0.338,0.323,0.289,0.161,0.100,west-southwest,1.8,No
2018/08/05,16:40,0.330,0.205,0.337,0.323,0.288,0.163,0.101,west-northwest,1.9,No
2018/08/05,16:50,0.331,0.206,0.337,0.324,0.289,0.164,0.100,west-northwest,2.3,No
2018/08/05,17:00,0.329,0.205,0.338,0.324,0.290,0.163,0.099,northwest,2.5,No
2018/08/05,17:10,0.329,0.206,0.337,0.323,0.290,0.164,0.101,northwest,3.4,No
2018/08/05,17:20,0.329,0.207,0.338,0.321,0.291,0.165,0.099,north-northwest,4.2,No
2018/08/05,17:30,0.331,0.207,0.337,0.325,0.292,0.164,0.099,north-northwest,3.4,No
2018/08/05,17:40,0.330,0.207,0.337,0.325,0.292,0.165,0.099,north,3.0,No
2018/08/05,17:50,0.330,0.206,0.337,0.324,0.292,0.165,0.101,north-northwest,3.4,No
2018/08/05,18:00,0.330,0.206,0.338,0.324,0.292,0.164,0.100,north,2.9,No
2018/08/05,18:10,0.330,0.207,0.338,0.323,0.293,0.164,0.099,north-northwest,3.2,No
2018/08/05,18:20,0.330,0.205,0.337,0.324,0.293,0.165,0.099,north,4.5,No
2018/08/05,18:30,0.329,0.206,0.337,0.323,0.293,0.165,0.100,north,3.8,No
2018/08/05,18:40,0.330,0.206,0.336,0.324,0.290,0.167,0.101,north-northwest,3.4,No
2018/08/05,18:50,0.329,0.205,0.337,0.322,0.291,0.165,0.101,north-northwest,4.9,No
2018/08/05,19:00,0.333,0.205,0.338,0.328,0.291,0.164,0.101,north-northwest,5.7,No
2018/08/05,19:10,0.336,0.207,0.341,0.329,0.293,0.164,0.100,north-northwest,4.9,No
2018/08/05,19:20,0.334,0.209,0.343,0.328,0.296,0.165,0.099,north-northwest,4.5,No
2018/08/05,19:30,0.332,0.207,0.341,0.325,0.295,0.165,0.100,north-northwest,3.6,No
2018/08/05,19:40,0.330,0.207,0.339,0.324,0.293,0.165,0.101,north-northwest,3.8,No
2018/08/05,19:50,0.333,0.206,0.336,0.323,0.292,0.165,0.100,northwest,2.3,No
2018/08/05,20:00,0.336,0.209,0.338,0.326,0.291,0.164,0.100,west-northwest,1.3,No
2018/08/05,20:10,0.333,0.208,0.338,0.330,0.289,0.166,0.100,-,CALM,No
2018/08/05,20:20,0.332,0.208,0.343,0.327,0.293,0.166,0.100,north-northwest,1.6,No
2018/08/05,20:30,0.329,0.206,0.341,0.325,0.296,0.165,0.101,northwest,1.6,No
2018/08/05,20:40,0.334,0.205,0.338,0.324,0.294,0.165,0.101,north,3.7,No
2018/08/05,20:50,0.335,0.208,0.337,0.324,0.294,0.164,0.100,north-northwest,3.2,No
2018/08/05,21:00,0.332,0.208,0.339,0.327,0.291,0.166,0.100,west-southwest,0.8,No
2018/08/05,21:10,0.331,0.207,0.342,0.329,0.294,0.165,0.101,south-southwest,5.1,No
2018/08/05,21:20,0.330,0.206,0.341,0.324,0.295,0.164,0.101,south,5.2,No
2018/08/05,21:30,0.336,0.206,0.338,0.323,0.293,0.163,0.100,south,4.2,No
2018/08/05,21:40,0.333,0.208,0.337,0.324,0.291,0.165,0.101,south-southwest,2.2,No
2018/08/05,21:50,0.331,0.207,0.336,0.329,0.291,0.165,0.100,southwest,2.9,No
2018/08/05,22:00,0.330,0.206,0.342,0.326,0.292,0.164,0.101,southwest,2.8,No
2018/08/05,22:10,0.329,0.205,0.340,0.324,0.294,0.164,0.101,south-southwest,1.8,No
2018/08/05,22:20,0.335,0.207,0.339,0.323,0.292,0.165,0.100,southwest,2.3,No
2018/08/05,22:30,0.334,0.209,0.338,0.324,0.291,0.165,0.100,south-southwest,2.9,No
2018/08/05,22:40,0.331,0.207,0.336,0.328,0.291,0.165,0.100,southwest,2.8,No
2018/08/05,22:50,0.329,0.207,0.341,0.329,0.292,0.163,0.101,west-southwest,3.1,No
2018/08/05,23:00,0.331,0.205,0.343,0.324,0.295,0.165,0.102,northwest,2.9,No
2018/08/05,23:10,0.335,0.207,0.339,0.325,0.296,0.166,0.101,north,7.8,No
2018/08/05,23:20,0.333,0.209,0.337,0.325,0.292,0.166,0.100,north,7.7,No
2018/08/05,23:30,0.331,0.206,0.337,0.327,0.291,0.164,0.100,north,6.8,No
2018/08/05,23:40,0.331,0.205,0.342,0.327,0.292,0.165,0.101,north,7.5,No
2018/08/05,23:50,0.333,0.207,0.342,0.324,0.296,0.165,0.101,north,7.3,No
